Time,TemperatureF,DewpointF,PressureIn,WindDirection,WindDirectionDegrees,WindSpeedMPH,WindSpeedGustMPH,Humidity,HourlyPrecipIn,Conditions,Clouds,dailyrainin,SolarRadiationWatts/m^2,SoftwareType,DateUTC
2013-01-17 00:00:00,43.2,29.9,30.18,ESE,102,0.0,1.0,59,0.00,,,0.00,0,WeatherCatV1.12B45,2013-01-17 08:00:00,
2013-01-17 00:05:00,42.9,30.0,30.18,SE,131,0.0,1.0,60,0.00,,,0.00,0,WeatherCatV1.12B45,2013-01-17 08:05:00,
2013-01-17 00:10:00,43.1,29.8,30.18,SE,127,1.0,1.0,59,0.00,,,0.00,0,WeatherCatV1.12B45,2013-01-17 08:10:00,
2013-01-17 00:15:00,43.2,29.9,30.18,SE,136,0.0,1.0,59,0.00,,,0.00,0,WeatherCatV1.12B45,2013-01-17 08:15:00,
2013-01-17 00:20:00,43.3,29.9,30.18,East,92,0.0,3.0,59,0.00,,,0.00,0,WeatherCatV1.12B45,2013-01-17 08:20:00,
2013-01-17 00:25:00,44.2,29.9,30.18,ESE,119,1.0,1.0,57,0.00,,,0.00,0,WeatherCatV1.12B45,2013-01-17 08:25:00,
2013-01-17 00:30:00,45.1,29.9,30.18,ESE,119,1.0,1.0,55,0.00,,,0.00,0,WeatherCatV1.12B45,2013-01-17 08:30:00,
2013-01-17 00:35:00,45.4,29.7,30.18,ESE,117,1.0,3.0,54,0.00,,,0.00,0,WeatherCatV1.12B45,2013-01-17 08:35:00,
2013-01-17 00:40:00,45.7,30.5,30.18,North,0,1.0,1.0,55,0.00,,,0.00,0,WeatherCatV1.12B45,2013-01-17 08:40:00,
2013-01-17 00:45:00,46.1,30.4,30.17,ESE,120,1.0,2.0,54,0.00,,,0.00,0,WeatherCatV1.12B45,2013-01-17 08:45:00,
2013-01-17 00:50:00,46.4,30.7,30.17,East,99,1.0,3.0,54,0.00,,,0.00,0,WeatherCatV1.12B45,2013-01-17 08:50:00,
2013-01-17 00:55:00,46.7,30.5,30.17,North,0,0.0,0.0,53,0.00,,,0.00,0,WeatherCatV1.12B45,2013-01-17 08:55:00,
2013-01-17 01:00:00,47.0,30.8,30.17,ESE,107,1.0,1.0,53,0.00,,,0.00,0,WeatherCatV1.12B45,2013-01-17 09:00:00,
2013-01-17 01:05:00,47.1,30.9,30.17,East,95,0.0,2.0,53,0.00,,,0.00,0,WeatherCatV1.12B45,2013-01-17 09:05:00,
2013-01-17 01:10:00,47.0,30.8,30.17,SE,130,0.0,5.0,53,0.00,,,0.00,0,WeatherCatV1.12B45,2013-01-17 09:10:00,
2013-01-17 01:15:00,47.0,30.8,30.18,SE,138,2.0,2.0,53,0.00,,,0.00,0,WeatherCatV1.12B45,2013-01-17 09:15:00,
2013-01-17 01:20:00,47.0,30.8,30.18,ESE,109,0.0,1.0,53,0.00,,,0.00,0,WeatherCatV1.12B45,2013-01-17 09:20:00,
2013-01-17 01:25:00,47.0,30.8,30.18,SE,136,0.0,4.0,53,0.00,,,0.00,0,WeatherCatV1.12B45,2013-01-17 09:25:00,
2013-01-17 01:30:00,46.7,30.9,30.17,ESE,123,0.0,0.0,54,0.00,,,0.00,0,WeatherCatV1.12B45,2013-01-17 09:30:00,
2013-01-17 01:35:00,46.7,31.4,30.17,NNW,347,0.0,5.0,55,0.00,,,0.00,0,WeatherCatV1.12B45,2013-01-17 09:35:00,
2013-01-17 01:40:00,46.7,31.4,30.17,East,96,1.0,3.0,55,0.00,,,0.00,0,WeatherCatV1.12B45,2013-01-17 09:40:00,
2013-01-17 01:45:00,46.7,30.9,30.17,SE,126,2.0,2.0,54,0.00,,,0.00,0,WeatherCatV1.12B45,2013-01-17 09:45:00,
2013-01-17 01:50:00,46.8,31.5,30.17,East,82,3.0,3.0,55,0.00,,,0.00,0,WeatherCatV1.12B45,2013-01-17 09:50:00,
2013-01-17 01:55:00,46.8,31.5,30.17,ESE,107,0.0,1.0,55,0.00,,,0.00,0,WeatherCatV1.12B45,2013-01-17 09:55:00,
2013-01-17 02:00:00,47.0,31.2,30.17,SE,126,3.0,3.0,54,0.00,,,0.00,0,WeatherCatV1.12B45,2013-01-17 10:00:00,
2013-01-17 02:05:00,47.3,31.5,30.17,ESE,103,0.0,6.0,54,0.00,,,0.00,0,WeatherCatV1.12B45,2013-01-17 10:05:00,
2013-01-17 02:10:00,47.3,31.5,30.17,East,82,6.0,6.0,54,0.00,,,0.00,0,WeatherCatV1.12B45,2013-01-17 10:10:00,
2013-01-17 02:15:00,47.3,31.5,30.17,ESE,116,0.0,2.0,54,0.00,,,0.00,0,WeatherCatV1.12B45,2013-01-17 10:15:00,
2013-01-17 02:20:00,47.3,31.5,30.17,ESE,120,5.0,6.0,54,0.00,,,0.00,0,WeatherCatV1.12B45,2013-01-17 10:20:00,
2013-01-17 02:25:00,47.1,31.3,30.17,SE,127,3.0,10.0,54,0.00,,,0.00,0,WeatherCatV1.12B45,2013-01-17 10:25:00,
2013-01-17 02:30:00,47.1,31.3,30.17,ESE,116,3.0,7.0,54,0.00,,,0.00,0,WeatherCatV1.12B45,2013-01-17 10:30:00,
2013-01-17 02:35:00,47.1,31.3,30.17,East,95,2.0,5.0,54,0.00,,,0.00,0,WeatherCatV1.12B45,2013-01-17 10:35:00,
2013-01-17 02:40:00,47.0,31.7,30.17,East,96,2.0,5.0,55,0.00,,,0.00,0,WeatherCatV1.12B45,2013-01-17 10:40:00,
2013-01-17 02:45:00,47.0,31.7,30.17,ESE,107,1.0,6.0,55,0.00,,,0.00,0,WeatherCatV1.12B45,2013-01-17 10:45:00,
2013-01-17 02:50:00,46.8,31.9,30.17,East,92,2.0,3.0,56,0.00,,,0.00,0,WeatherCatV1.12B45,2013-01-17 10:50:00,
2013-01-17 02:55:00,46.8,31.9,30.17,ENE,71,5.0,5.0,56,0.00,,,0.00,0,WeatherCatV1.12B45,2013-01-17 10:55:00,
2013-01-17 03:00:00,46.7,31.8,30.16,East,99,2.0,3.0,56,0.00,,,0.00,0,WeatherCatV1.12B45,2013-01-17 11:00:00,
2013-01-17 03:05:00,46.7,31.8,30.16,SE,127,3.0,3.0,56,0.00,,,0.00,0,WeatherCatV1.12B45,2013-01-17 11:05:00,
2013-01-17 03:10:00,46.5,31.7,30.16,SE,126,2.0,7.0,56,0.00,,,0.00,0,WeatherCatV1.12B45,2013-01-17 11:10:00,
2013-01-17 03:15:00,46.5,31.7,30.16,ESE,113,1.0,3.0,56,0.00,,,0.00,0,WeatherCatV1.12B45,2013-01-17 11:15:00,
2013-01-17 03:20:00,46.1,32.2,30.16,NNE,24,2.0,2.0,58,0.00,,,0.00,0,WeatherCatV1.12B45,2013-01-17 11:20:00,
2013-01-17 03:25:00,45.7,32.2,30.16,SE,140,1.0,3.0,59,0.00,,,0.00,0,WeatherCatV1.12B45,2013-01-17 11:25:00,
2013-01-17 03:30:00,45.8,31.9,30.16,ESE,113,2.0,3.0,58,0.00,,,0.00,0,WeatherCatV1.12B45,2013-01-17 11:30:00,
2013-01-17 03:35:00,45.8,31.9,30.16,SE,136,0.0,2.0,58,0.00,,,0.00,0,WeatherCatV1.12B45,2013-01-17 11:35:00,
2013-01-17 03:40:00,45.7,31.8,30.16,SE,127,2.0,2.0,58,0.00,,,0.00,0,WeatherCatV1.12B45,2013-01-17 11:40:00,
2013-01-17 03:45:00,45.2,32.1,30.16,East,100,1.0,6.0,60,0.00,,,0.00,0,WeatherCatV1.12B45,2013-01-17 11:45:00,
2013-01-17 03:50:00,45.2,32.1,30.16,SE,131,1.0,1.0,60,0.00,,,0.00,0,WeatherCatV1.12B45,2013-01-17 11:50:00,
2013-01-17 03:55:00,44.9,32.7,30.16,SE,127,2.0,5.0,62,0.00,,,0.00,0,WeatherCatV1.12B45,2013-01-17 11:55:00,
2013-01-17 04:00:00,44.9,32.7,30.16,SE,143,1.0,5.0,62,0.00,,,0.00,0,WeatherCatV1.12B45,2013-01-17 12:00:00,
2013-01-17 04:05:00,44.6,32.4,30.16,ESE,102,3.0,3.0,62,0.00,,,0.00,0,WeatherCatV1.12B45,2013-01-17 12:05:00,
2013-01-17 04:10:00,44.5,32.7,30.16,SE,134,0.0,2.0,63,0.00,,,0.00,0,WeatherCatV1.12B45,2013-01-17 12:10:00,
2013-01-17 04:15:00,44.6,32.8,30.15,East,95,3.0,3.0,63,0.00,,,0.00,0,WeatherCatV1.12B45,2013-01-17 12:15:00,
2013-01-17 04:20:00,44.6,32.8,30.15,ESE,117,8.0,8.0,63,0.00,,,0.00,0,WeatherCatV1.12B45,2013-01-17 12:20:00,
2013-01-17 04:25:00,44.6,32.8,30.15,East,96,1.0,3.0,63,0.00,,,0.00,0,WeatherCatV1.12B45,2013-01-17 12:25:00,
2013-01-17 04:30:00,44.6,32.8,30.15,SE,126,3.0,3.0,63,0.00,,,0.00,0,WeatherCatV1.12B45,2013-01-17 12:30:00,
2013-01-17 04:35:00,44.3,32.5,30.15,SE,130,2.0,2.0,63,0.00,,,0.00,0,WeatherCatV1.12B45,2013-01-17 12:35:00,
2013-01-17 04:40:00,44.2,32.8,30.15,SE,134,4.0,4.0,64,0.00,,,0.00,0,WeatherCatV1.12B45,2013-01-17 12:40:00,
2013-01-17 04:45:00,43.9,32.9,30.15,ESE,113,1.0,1.0,65,0.00,,,0.00,0,WeatherCatV1.12B45,2013-01-17 12:45:00,
2013-01-17 04:50:00,43.5,32.5,30.15,ESE,106,2.0,3.0,65,0.00,,,0.00,0,WeatherCatV1.12B45,2013-01-17 12:50:00,
2013-01-17 04:55:00,43.8,32.8,30.15,East,79,3.0,6.0,65,0.00,,,0.00,0,WeatherCatV1.12B45,2013-01-17 12:55:00,
2013-01-17 05:00:00,44.3,33.3,30.14,East,99,6.0,7.0,65,0.00,,,0.00,0,WeatherCatV1.12B45,2013-01-17 13:00:00,
2013-01-17 05:05:00,44.6,33.2,30.14,East,96,1.0,3.0,64,0.00,,,0.00,0,WeatherCatV1.12B45,2013-01-17 13:05:00,
2013-01-17 05:10:00,44.6,33.2,30.14,ESE,113,2.0,2.0,64,0.00,,,0.00,0,WeatherCatV1.12B45,2013-01-17 13:10:00,
2013-01-17 05:15:00,44.6,33.2,30.14,ENE,78,6.0,6.0,64,0.00,,,0.00,0,WeatherCatV1.12B45,2013-01-17 13:15:00,
2013-01-17 05:20:00,44.8,33.4,30.14,ENE,71,2.0,5.0,64,0.00,,,0.00,0,WeatherCatV1.12B45,2013-01-17 13:20:00,
2013-01-17 05:25:00,44.8,33.4,30.14,ESE,123,1.0,2.0,64,0.00,,,0.00,0,WeatherCatV1.12B45,2013-01-17 13:25:00,
2013-01-17 05:30:00,44.5,33.1,30.14,ESE,102,0.0,5.0,64,0.00,,,0.00,0,WeatherCatV1.12B45,2013-01-17 13:30:00,
2013-01-17 05:35:00,44.5,33.5,30.14,East,96,2.0,2.0,65,0.00,,,0.00,0,WeatherCatV1.12B45,2013-01-17 13:35:00,
2013-01-17 05:40:00,44.3,33.3,30.14,ESE,113,1.0,6.0,65,0.00,,,0.00,0,WeatherCatV1.12B45,2013-01-17 13:40:00,
2013-01-17 05:45:00,44.3,33.3,30.14,ESE,113,1.0,2.0,65,0.00,,,0.00,0,WeatherCatV1.12B45,2013-01-17 13:45:00,
2013-01-17 05:50:00,44.2,33.2,30.14,SE,126,2.0,2.0,65,0.00,,,0.00,0,WeatherCatV1.12B45,2013-01-17 13:50:00,
2013-01-17 05:55:00,44.1,33.1,30.14,East,88,2.0,2.0,65,0.00,,,0.00,0,WeatherCatV1.12B45,2013-01-17 13:55:00,
2013-01-17 06:00:00,43.9,33.3,30.14,East,92,0.0,3.0,66,0.00,,,0.00,0,WeatherCatV1.12B45,2013-01-17 14:00:00,
2013-01-17 06:05:00,43.8,33.2,30.14,ESE,120,3.0,6.0,66,0.00,,,0.00,0,WeatherCatV1.12B45,2013-01-17 14:05:00,
2013-01-17 06:10:00,43.8,33.6,30.14,East,100,1.0,2.0,67,0.00,,,0.00,0,WeatherCatV1.12B45,2013-01-17 14:10:00,
2013-01-17 06:15:00,43.8,33.6,30.14,East,99,0.0,2.0,67,0.00,,,0.00,0,WeatherCatV1.12B45,2013-01-17 14:15:00,
2013-01-17 06:20:00,43.5,33.3,30.14,SE,140,5.0,5.0,67,0.00,,,0.00,0,WeatherCatV1.12B45,2013-01-17 14:20:00,
2013-01-17 06:25:00,43.3,33.1,30.14,ESE,110,3.0,3.0,67,0.00,,,0.00,0,WeatherCatV1.12B45,2013-01-17 14:25:00,
2013-01-17 06:30:00,43.1,33.3,30.15,ESE,103,2.0,2.0,68,0.00,,,0.00,0,WeatherCatV1.12B45,2013-01-17 14:30:00,
2013-01-17 06:35:00,42.9,33.1,30.15,ESE,123,1.0,1.0,68,0.00,,,0.00,0,WeatherCatV1.12B45,2013-01-17 14:35:00,
2013-01-17 06:40:00,42.6,32.8,30.15,ESE,103,1.0,2.0,68,0.00,,,0.00,0,WeatherCatV1.12B45,2013-01-17 14:40:00,
2013-01-17 06:45:00,42.3,32.9,30.15,East,96,0.0,2.0,69,0.00,,,0.00,0,WeatherCatV1.12B45,2013-01-17 14:45:00,
2013-01-17 06:50:00,42.2,33.1,30.15,East,92,0.0,2.0,70,0.00,,,0.00,0,WeatherCatV1.12B45,2013-01-17 14:50:00,
2013-01-17 06:55:00,42.6,33.2,30.15,East,96,0.0,4.0,69,0.00,,,0.00,0,WeatherCatV1.12B45,2013-01-17 14:55:00,
2013-01-17 07:00:00,42.9,33.4,30.15,ESE,106,1.0,1.0,69,0.00,,,0.00,0,WeatherCatV1.12B45,2013-01-17 15:00:00,
2013-01-17 07:05:00,42.8,33.3,30.15,ESE,106,0.0,0.0,69,0.00,,,0.00,0,WeatherCatV1.12B45,2013-01-17 15:05:00,
2013-01-17 07:10:00,42.1,33.0,30.15,ESE,119,2.0,5.0,70,0.00,,,0.00,0,WeatherCatV1.12B45,2013-01-17 15:10:00,
2013-01-17 07:15:00,41.8,32.7,30.15,SE,127,0.0,2.0,70,0.00,,,0.00,0,WeatherCatV1.12B45,2013-01-17 15:15:00,
2013-01-17 07:20:00,41.5,32.8,30.15,SE,130,2.0,2.0,71,0.00,,,0.00,0,WeatherCatV1.12B45,2013-01-17 15:20:00,
2013-01-17 07:25:00,41.3,32.6,30.15,East,89,0.0,0.0,71,0.00,,,0.00,0,WeatherCatV1.12B45,2013-01-17 15:25:00,
2013-01-17 07:30:00,41.3,32.6,30.15,East,89,3.0,3.0,71,0.00,,,0.00,0,WeatherCatV1.12B45,2013-01-17 15:30:00,
2013-01-17 07:35:00,41.5,33.2,30.15,ESE,102,0.0,2.0,72,0.00,,,0.00,0,WeatherCatV1.12B45,2013-01-17 15:35:00,
2013-01-17 07:40:00,41.3,33.0,30.15,NE,54,1.0,2.0,72,0.00,,,0.00,9,WeatherCatV1.12B45,2013-01-17 15:40:00,
2013-01-17 07:45:00,41.3,33.0,30.16,East,96,1.0,6.0,72,0.00,,,0.00,12,WeatherCatV1.12B45,2013-01-17 15:45:00,
2013-01-17 07:50:00,41.5,33.2,30.16,ENE,58,2.0,3.0,72,0.00,,,0.00,12,WeatherCatV1.12B45,2013-01-17 15:50:00,
2013-01-17 07:55:00,41.8,33.4,30.16,ESE,103,1.0,1.0,72,0.00,,,0.00,26,WeatherCatV1.12B45,2013-01-17 15:55:00,
2013-01-17 08:00:00,42.3,33.2,30.16,ENE,75,2.0,2.0,70,0.00,,,0.00,40,WeatherCatV1.12B45,2013-01-17 16:00:00,
2013-01-17 08:05:00,43.6,34.1,30.16,ESE,117,0.0,6.0,69,0.00,,,0.00,40,WeatherCatV1.12B45,2013-01-17 16:05:00,
2013-01-17 08:10:00,44.3,34.0,30.16,SSE,147,2.0,2.0,67,0.00,,,0.00,113,WeatherCatV1.12B45,2013-01-17 16:10:00,
2013-01-17 08:15:00,44.6,33.6,30.16,South,175,0.0,0.0,65,0.00,,,0.00,113,WeatherCatV1.12B45,2013-01-17 16:15:00,
2013-01-17 08:20:00,44.9,33.9,30.16,SE,131,2.0,2.0,65,0.00,,,0.00,153,WeatherCatV1.12B45,2013-01-17 16:20:00,
2013-01-17 08:25:00,45.1,34.0,30.16,SSE,164,0.0,1.0,65,0.00,,,0.00,167,WeatherCatV1.12B45,2013-01-17 16:25:00,
2013-01-17 08:30:00,45.8,34.3,30.17,SSE,164,0.0,3.0,64,0.00,,,0.00,174,WeatherCatV1.12B45,2013-01-17 16:30:00,
2013-01-17 08:35:00,46.5,34.2,30.17,North,356,2.0,5.0,62,0.00,,,0.00,197,WeatherCatV1.12B45,2013-01-17 16:35:00,
2013-01-17 08:40:00,47.6,34.4,30.17,SSE,168,4.0,5.0,60,0.00,,,0.00,197,WeatherCatV1.12B45,2013-01-17 16:40:00,
2013-01-17 08:45:00,48.2,35.0,30.17,South,184,0.0,5.0,60,0.00,,,0.00,222,WeatherCatV1.12B45,2013-01-17 16:45:00,
2013-01-17 08:50:00,48.9,33.9,30.17,South,185,3.0,4.0,56,0.00,,,0.00,232,WeatherCatV1.12B45,2013-01-17 16:50:00,
2013-01-17 08:55:00,49.5,34.5,30.17,ESE,113,2.0,5.0,56,0.00,,,0.00,255,WeatherCatV1.12B45,2013-01-17 16:55:00,
2013-01-17 09:00:00,49.9,34.4,30.17,SSE,164,0.0,1.0,55,0.00,,,0.00,267,WeatherCatV1.12B45,2013-01-17 17:00:00,
2013-01-17 09:05:00,50.5,33.5,30.17,SSE,147,0.0,7.0,52,0.00,,,0.00,285,WeatherCatV1.12B45,2013-01-17 17:05:00,
2013-01-17 09:10:00,51.1,34.6,30.17,SSE,168,0.0,0.0,53,0.00,,,0.00,301,WeatherCatV1.12B45,2013-01-17 17:10:00,
2013-01-17 09:15:00,51.3,34.8,30.18,SSW,210,0.0,0.0,53,0.00,,,0.00,301,WeatherCatV1.12B45,2013-01-17 17:15:00,
2013-01-17 09:20:00,51.9,34.8,30.18,SSW,205,2.0,2.0,52,0.00,,,0.00,334,WeatherCatV1.12B45,2013-01-17 17:20:00,
2013-01-17 09:25:00,52.3,34.7,30.18,SSW,196,1.0,1.0,51,0.00,,,0.00,334,WeatherCatV1.12B45,2013-01-17 17:25:00,
2013-01-17 09:30:00,52.9,33.2,30.18,South,191,2.0,2.0,47,0.00,,,0.00,355,WeatherCatV1.12B45,2013-01-17 17:30:00,
2013-01-17 09:35:00,53.2,33.5,30.18,SSE,160,3.0,5.0,47,0.00,,,0.00,373,WeatherCatV1.12B45,2013-01-17 17:35:00,
2013-01-17 09:40:00,53.5,33.2,30.18,North,356,1.0,5.0,46,0.00,,,0.00,373,WeatherCatV1.12B45,2013-01-17 17:40:00,
2013-01-17 09:45:00,54.1,33.8,30.18,SSW,192,1.0,5.0,46,0.00,,,0.00,399,WeatherCatV1.12B45,2013-01-17 17:45:00,
2013-01-17 09:50:00,54.5,33.6,30.18,South,176,1.0,6.0,45,0.00,,,0.00,413,WeatherCatV1.12B45,2013-01-17 17:50:00,
2013-01-17 09:55:00,54.8,33.3,30.18,SSE,160,0.0,3.0,44,0.00,,,0.00,421,WeatherCatV1.12B45,2013-01-17 17:55:00,
2013-01-17 10:00:00,55.4,33.9,30.18,NNW,336,2.0,2.0,44,0.00,,,0.00,436,WeatherCatV1.12B45,2013-01-17 18:00:00,
2013-01-17 10:05:00,55.9,33.7,30.18,SSE,151,3.0,3.0,43,0.00,,,0.00,436,WeatherCatV1.12B45,2013-01-17 18:05:00,
2013-01-17 10:10:00,56.3,34.1,30.18,South,182,0.0,2.0,43,0.00,,,0.00,459,WeatherCatV1.12B45,2013-01-17 18:10:00,
2013-01-17 10:15:00,56.5,34.3,30.17,SSW,195,1.0,1.0,43,0.00,,,0.00,459,WeatherCatV1.12B45,2013-01-17 18:15:00,
2013-01-17 10:20:00,56.7,33.3,30.17,SSW,193,5.0,7.0,41,0.00,,,0.00,477,WeatherCatV1.12B45,2013-01-17 18:20:00,
2013-01-17 10:25:00,56.7,33.3,30.17,South,172,0.0,1.0,41,0.00,,,0.00,482,WeatherCatV1.12B45,2013-01-17 18:25:00,
2013-01-17 10:30:00,57.0,32.3,30.17,South,184,1.0,8.0,39,0.00,,,0.00,496,WeatherCatV1.12B45,2013-01-17 18:30:00,
2013-01-17 10:35:00,57.5,31.4,30.17,North,0,3.0,3.0,37,0.00,,,0.00,496,WeatherCatV1.12B45,2013-01-17 18:35:00,
2013-01-17 10:40:00,58.0,31.9,30.17,North,0,1.0,5.0,37,0.00,,,0.00,512,WeatherCatV1.12B45,2013-01-17 18:40:00,
2013-01-17 10:45:00,58.3,32.1,30.16,SSW,203,2.0,6.0,37,0.00,,,0.00,521,WeatherCatV1.12B45,2013-01-17 18:45:00,
2013-01-17 10:50:00,58.4,30.9,30.16,NNW,337,0.0,3.0,35,0.00,,,0.00,533,WeatherCatV1.12B45,2013-01-17 18:50:00,
2013-01-17 10:55:00,58.6,31.7,30.16,SW,215,2.0,2.0,36,0.00,,,0.00,533,WeatherCatV1.12B45,2013-01-17 18:55:00,
2013-01-17 11:00:00,58.9,32.0,30.16,SSW,210,3.0,6.0,36,0.00,,,0.00,547,WeatherCatV1.12B45,2013-01-17 19:00:00,
2013-01-17 11:05:00,58.9,32.0,30.16,SSE,162,1.0,3.0,36,0.00,,,0.00,547,WeatherCatV1.12B45,2013-01-17 19:05:00,
2013-01-17 11:10:00,59.0,31.4,30.16,North,0,3.0,4.0,35,0.00,,,0.00,558,WeatherCatV1.12B45,2013-01-17 19:10:00,
2013-01-17 11:15:00,59.3,30.9,30.15,North,357,2.0,5.0,34,0.00,,,0.00,565,WeatherCatV1.12B45,2013-01-17 19:15:00,
2013-01-17 11:20:00,59.9,30.7,30.15,SSE,147,1.0,2.0,33,0.00,,,0.00,565,WeatherCatV1.12B45,2013-01-17 19:20:00,
2013-01-17 11:25:00,60.4,30.4,30.15,SSE,147,0.0,2.0,32,0.00,,,0.00,574,WeatherCatV1.12B45,2013-01-17 19:25:00,
2013-01-17 11:30:00,60.4,29.6,30.15,NNW,332,4.0,6.0,31,0.00,,,0.00,577,WeatherCatV1.12B45,2013-01-17 19:30:00,
2013-01-17 11:35:00,60.4,30.4,30.15,NNW,336,1.0,6.0,32,0.00,,,0.00,584,WeatherCatV1.12B45,2013-01-17 19:35:00,
2013-01-17 11:40:00,60.5,30.5,30.15,South,182,3.0,5.0,32,0.00,,,0.00,586,WeatherCatV1.12B45,2013-01-17 19:40:00,
2013-01-17 11:45:00,60.5,32.0,30.14,NW,325,2.0,3.0,34,0.00,,,0.00,588,WeatherCatV1.12B45,2013-01-17 19:45:00,
2013-01-17 11:50:00,60.7,32.2,30.14,South,179,0.0,1.0,34,0.00,,,0.00,595,WeatherCatV1.12B45,2013-01-17 19:50:00,
2013-01-17 11:55:00,60.7,31.4,30.14,SSE,151,1.0,3.0,33,0.00,,,0.00,595,WeatherCatV1.12B45,2013-01-17 19:55:00,
2013-01-17 12:00:00,60.9,30.8,30.13,ESE,119,0.0,1.0,32,0.00,,,0.00,596,WeatherCatV1.12B45,2013-01-17 20:00:00,
2013-01-17 12:05:00,61.2,31.1,30.13,NW,320,1.0,2.0,32,0.00,,,0.00,596,WeatherCatV1.12B45,2013-01-17 20:05:00,
2013-01-17 12:10:00,61.2,30.3,30.13,North,353,0.0,2.0,31,0.00,,,0.00,598,WeatherCatV1.12B45,2013-01-17 20:10:00,
2013-01-17 12:15:00,61.3,30.4,30.13,North,353,0.0,4.0,31,0.00,,,0.00,596,WeatherCatV1.12B45,2013-01-17 20:15:00,
2013-01-17 12:20:00,61.5,31.4,30.13,SE,136,2.0,3.0,32,0.00,,,0.00,596,WeatherCatV1.12B45,2013-01-17 20:20:00,
2013-01-17 12:25:00,61.5,31.4,30.13,NNW,346,0.0,0.0,32,0.00,,,0.00,600,WeatherCatV1.12B45,2013-01-17 20:25:00,
2013-01-17 12:30:00,61.6,30.7,30.12,SSE,165,1.0,3.0,31,0.00,,,0.00,600,WeatherCatV1.12B45,2013-01-17 20:30:00,
2013-01-17 12:35:00,62.0,30.2,30.12,NNW,333,2.0,6.0,30,0.00,,,0.00,600,WeatherCatV1.12B45,2013-01-17 20:35:00,
2013-01-17 12:40:00,61.8,30.0,30.12,South,186,6.0,6.0,30,0.00,,,0.00,596,WeatherCatV1.12B45,2013-01-17 20:40:00,
2013-01-17 12:45:00,61.6,30.7,30.11,NNW,347,3.0,3.0,31,0.00,,,0.00,591,WeatherCatV1.12B45,2013-01-17 20:45:00,
2013-01-17 12:50:00,62.0,31.0,30.11,North,0,0.0,3.0,31,0.00,,,0.00,591,WeatherCatV1.12B45,2013-01-17 20:50:00,
2013-01-17 12:55:00,62.1,30.3,30.11,South,185,6.0,7.0,30,0.00,,,0.00,591,WeatherCatV1.12B45,2013-01-17 20:55:00,
2013-01-17 13:00:00,61.8,30.0,30.10,NW,306,3.0,3.0,30,0.00,,,0.00,591,WeatherCatV1.12B45,2013-01-17 21:00:00,
2013-01-17 13:05:00,62.1,30.3,30.10,SSE,161,0.0,3.0,30,0.00,,,0.00,581,WeatherCatV1.12B45,2013-01-17 21:05:00,
2013-01-17 13:10:00,62.4,29.7,30.10,SSW,192,2.0,3.0,29,0.00,,,0.00,582,WeatherCatV1.12B45,2013-01-17 21:10:00,
2013-01-17 13:15:00,62.7,30.8,30.10,North,357,0.0,3.0,30,0.00,,,0.00,572,WeatherCatV1.12B45,2013-01-17 21:15:00,
2013-01-17 13:20:00,63.1,30.3,30.10,ESE,117,3.0,6.0,29,0.00,,,0.00,570,WeatherCatV1.12B45,2013-01-17 21:20:00,
2013-01-17 13:25:00,62.9,31.0,30.10,SSE,168,5.0,7.0,30,0.00,,,0.00,570,WeatherCatV1.12B45,2013-01-17 21:25:00,
2013-01-17 13:30:00,62.7,30.8,30.09,SSE,162,0.0,0.0,30,0.00,,,0.00,570,WeatherCatV1.12B45,2013-01-17 21:30:00,
2013-01-17 13:35:00,63.1,30.3,30.09,SE,137,2.0,3.0,29,0.00,,,0.00,570,WeatherCatV1.12B45,2013-01-17 21:35:00,
2013-01-17 13:40:00,63.2,30.4,30.09,SE,131,0.0,1.0,29,0.00,,,0.00,542,WeatherCatV1.12B45,2013-01-17 21:40:00,
2013-01-17 13:45:00,63.5,31.5,30.09,NNW,336,0.0,2.0,30,0.00,,,0.00,542,WeatherCatV1.12B45,2013-01-17 21:45:00,
2013-01-17 13:50:00,63.7,30.8,30.09,SE,137,0.0,1.0,29,0.00,,,0.00,542,WeatherCatV1.12B45,2013-01-17 21:50:00,
2013-01-17 13:55:00,63.9,31.9,30.09,North,356,0.0,0.0,30,0.00,,,0.00,509,WeatherCatV1.12B45,2013-01-17 21:55:00,
2013-01-17 14:00:00,64.0,31.9,30.09,NNW,335,3.0,4.0,30,0.00,,,0.00,503,WeatherCatV1.12B45,2013-01-17 22:00:00,
2013-01-17 14:05:00,64.0,31.1,30.09,SSE,164,1.0,2.0,29,0.00,,,0.00,503,WeatherCatV1.12B45,2013-01-17 22:05:00,
2013-01-17 14:10:00,64.2,31.3,30.09,South,175,0.0,2.0,29,0.00,,,0.00,503,WeatherCatV1.12B45,2013-01-17 22:10:00,
2013-01-17 14:15:00,64.2,31.3,30.08,SSW,208,3.0,3.0,29,0.00,,,0.00,487,WeatherCatV1.12B45,2013-01-17 22:15:00,
2013-01-17 14:20:00,63.9,31.9,30.08,North,0,0.0,1.0,30,0.00,,,0.00,477,WeatherCatV1.12B45,2013-01-17 22:20:00,
2013-01-17 14:25:00,63.9,31.9,30.08,SE,138,1.0,1.0,30,0.00,,,0.00,473,WeatherCatV1.12B45,2013-01-17 22:25:00,
2013-01-17 14:30:00,63.7,31.7,30.08,SE,124,2.0,3.0,30,0.00,,,0.00,454,WeatherCatV1.12B45,2013-01-17 22:30:00,
2013-01-17 14:35:00,63.7,31.7,30.08,SE,131,1.0,6.0,30,0.00,,,0.00,443,WeatherCatV1.12B45,2013-01-17 22:35:00,
2013-01-17 14:40:00,63.5,33.1,30.08,ESE,113,2.0,2.0,32,0.00,,,0.00,429,WeatherCatV1.12B45,2013-01-17 22:40:00,
2013-01-17 14:45:00,63.4,32.2,30.08,SSE,148,2.0,2.0,31,0.00,,,0.00,422,WeatherCatV1.12B45,2013-01-17 22:45:00,
2013-01-17 14:50:00,63.5,32.3,30.08,SE,144,0.0,0.0,31,0.00,,,0.00,422,WeatherCatV1.12B45,2013-01-17 22:50:00,
2013-01-17 14:55:00,63.5,32.3,30.08,NNW,340,2.0,2.0,31,0.00,,,0.00,422,WeatherCatV1.12B45,2013-01-17 22:55:00,
2013-01-17 15:00:00,63.5,32.3,30.07,North,0,1.0,1.0,31,0.00,,,0.00,422,WeatherCatV1.12B45,2013-01-17 23:00:00,
2013-01-17 15:05:00,63.5,32.3,30.07,NW,313,0.0,0.0,31,0.00,,,0.00,422,WeatherCatV1.12B45,2013-01-17 23:05:00,
2013-01-17 15:10:00,63.9,32.7,30.07,SE,126,0.0,2.0,31,0.00,,,0.00,355,WeatherCatV1.12B45,2013-01-17 23:10:00,
2013-01-17 15:20:00,63.7,32.5,30.07,NW,304,1.0,1.0,31,0.00,,,0.00,336,WeatherCatV1.12B45,2013-01-17 23:20:00,
2013-01-17 15:25:00,63.7,32.5,30.07,NW,320,1.0,2.0,31,0.00,,,0.00,317,WeatherCatV1.12B45,2013-01-17 23:25:00,
2013-01-17 15:30:00,63.5,31.5,30.08,North,0,1.0,3.0,30,0.00,,,0.00,317,WeatherCatV1.12B45,2013-01-17 23:30:00,
2013-01-17 15:35:00,63.2,32.1,30.08,East,99,0.0,1.0,31,0.00,,,0.00,289,WeatherCatV1.12B45,2013-01-17 23:35:00,
2013-01-17 15:40:00,63.1,32.0,30.08,ESE,109,0.0,1.0,31,0.00,,,0.00,280,WeatherCatV1.12B45,2013-01-17 23:40:00,
2013-01-17 15:45:00,62.9,31.0,30.07,SE,130,1.0,3.0,30,0.00,,,0.00,266,WeatherCatV1.12B45,2013-01-17 23:45:00,
2013-01-17 15:50:00,62.6,31.5,30.07,North,354,2.0,2.0,31,0.00,,,0.00,266,WeatherCatV1.12B45,2013-01-17 23:50:00,
2013-01-17 15:55:00,62.4,31.4,30.07,North,0,0.0,3.0,31,0.00,,,0.00,223,WeatherCatV1.12B45,2013-01-17 23:55:00,
2013-01-17 16:00:00,62.0,31.0,30.07,North,356,2.0,2.0,31,0.00,,,0.00,223,WeatherCatV1.12B45,2013-01-18 00:00:00,
2013-01-17 16:05:00,61.8,31.6,30.07,SSW,209,1.0,6.0,32,0.00,,,0.00,202,WeatherCatV1.12B45,2013-01-18 00:05:00,
2013-01-17 16:10:00,61.5,30.6,30.07,WSW,247,0.0,3.0,31,0.00,,,0.00,176,WeatherCatV1.12B45,2013-01-18 00:10:00,
2013-01-17 16:15:00,61.3,32.0,30.08,SW,234,1.0,1.0,33,0.00,,,0.00,176,WeatherCatV1.12B45,2013-01-18 00:15:00,
2013-01-17 16:20:00,61.2,33.3,30.08,North,356,0.0,2.0,35,0.00,,,0.00,176,WeatherCatV1.12B45,2013-01-18 00:20:00,
2013-01-17 16:25:00,60.9,33.1,30.08,North,0,0.0,0.0,35,0.00,,,0.00,30,WeatherCatV1.12B45,2013-01-18 00:25:00,
2013-01-17 16:30:00,60.5,33.4,30.08,North,0,1.0,3.0,36,0.00,,,0.00,21,WeatherCatV1.12B45,2013-01-18 00:30:00,
2013-01-17 16:35:00,60.2,33.1,30.08,West,261,0.0,3.0,36,0.00,,,0.00,19,WeatherCatV1.12B45,2013-01-18 00:35:00,
2013-01-17 16:40:00,59.8,32.8,30.08,SW,215,0.0,3.0,36,0.00,,,0.00,19,WeatherCatV1.12B45,2013-01-18 00:40:00,
2013-01-17 16:45:00,59.6,32.6,30.08,WSW,248,0.0,1.0,36,0.00,,,0.00,19,WeatherCatV1.12B45,2013-01-18 00:45:00,
2013-01-17 16:50:00,59.2,32.3,30.08,SE,136,0.0,0.0,36,0.00,,,0.00,12,WeatherCatV1.12B45,2013-01-18 00:50:00,
2013-01-17 16:55:00,58.9,32.7,30.08,ESE,113,0.0,0.0,37,0.00,,,0.00,12,WeatherCatV1.12B45,2013-01-18 00:55:00,
2013-01-17 17:00:00,58.6,32.4,30.08,SSW,210,0.0,0.0,37,0.00,,,0.00,9,WeatherCatV1.12B45,2013-01-18 01:00:00,
2013-01-17 17:05:00,58.3,32.8,30.08,SW,215,0.0,0.0,38,0.00,,,0.00,9,WeatherCatV1.12B45,2013-01-18 01:05:00,
2013-01-17 17:10:00,57.8,32.4,30.08,North,0,0.0,0.0,38,0.00,,,0.00,9,WeatherCatV1.12B45,2013-01-18 01:10:00,
2013-01-17 17:15:00,57.3,31.9,30.08,SW,217,0.0,1.0,38,0.00,,,0.00,0,WeatherCatV1.12B45,2013-01-18 01:15:00,
2013-01-17 17:20:00,56.9,32.2,30.08,SW,220,0.0,2.0,39,0.00,,,0.00,0,WeatherCatV1.12B45,2013-01-18 01:20:00,
2013-01-17 17:25:00,56.7,32.0,30.08,SW,230,0.0,0.0,39,0.00,,,0.00,0,WeatherCatV1.12B45,2013-01-18 01:25:00,
2013-01-17 17:30:00,56.5,32.5,30.08,SW,227,0.0,0.0,40,0.00,,,0.00,0,WeatherCatV1.12B45,2013-01-18 01:30:00,
2013-01-17 17:35:00,56.0,32.0,30.08,SW,223,0.0,1.0,40,0.00,,,0.00,0,WeatherCatV1.12B45,2013-01-18 01:35:00,
2013-01-17 17:40:00,55.7,31.8,30.08,SW,220,0.0,0.0,40,0.00,,,0.00,0,WeatherCatV1.12B45,2013-01-18 01:40:00,
2013-01-17 17:45:00,55.3,32.0,30.08,SSW,200,1.0,2.0,41,0.00,,,0.00,0,WeatherCatV1.12B45,2013-01-18 01:45:00,
2013-01-17 17:50:00,55.3,31.4,30.08,SSW,193,0.0,0.0,40,0.00,,,0.00,0,WeatherCatV1.12B45,2013-01-18 01:50:00,
2013-01-17 17:55:00,55.0,31.7,30.08,South,191,0.0,0.0,41,0.00,,,0.00,0,WeatherCatV1.12B45,2013-01-18 01:55:00,
2013-01-17 18:00:00,54.7,31.5,30.09,SSW,195,0.0,0.0,41,0.00,,,0.00,0,WeatherCatV1.12B45,2013-01-18 02:00:00,
2013-01-17 18:05:00,54.4,31.8,30.09,SE,130,0.0,0.0,42,0.00,,,0.00,0,WeatherCatV1.12B45,2013-01-18 02:05:00,
2013-01-17 18:10:00,54.1,32.1,30.09,ESE,106,0.0,0.0,43,0.00,,,0.00,0,WeatherCatV1.12B45,2013-01-18 02:10:00,
2013-01-17 18:15:00,53.8,31.3,30.09,ESE,113,0.0,1.0,42,0.00,,,0.00,0,WeatherCatV1.12B45,2013-01-18 02:15:00,
2013-01-17 18:20:00,53.8,31.3,30.09,ESE,119,0.0,0.0,42,0.00,,,0.00,0,WeatherCatV1.12B45,2013-01-18 02:20:00,
2013-01-17 18:25:00,53.6,31.1,30.09,ESE,110,0.0,0.0,42,0.00,,,0.00,0,WeatherCatV1.12B45,2013-01-18 02:25:00,
2013-01-17 18:30:00,53.6,31.1,30.09,ESE,120,0.0,0.0,42,0.00,,,0.00,0,WeatherCatV1.12B45,2013-01-18 02:30:00,
2013-01-17 18:35:00,53.6,31.1,30.09,ESE,123,1.0,1.0,42,0.00,,,0.00,0,WeatherCatV1.12B45,2013-01-18 02:35:00,
2013-01-17 18:40:00,53.5,31.0,30.09,SE,126,0.0,0.0,42,0.00,,,0.00,0,WeatherCatV1.12B45,2013-01-18 02:40:00,
2013-01-17 18:45:00,53.5,31.0,30.09,ESE,119,0.0,0.0,42,0.00,,,0.00,0,WeatherCatV1.12B45,2013-01-18 02:45:00,
2013-01-17 18:50:00,53.2,31.3,30.09,East,93,0.0,0.0,43,0.00,,,0.00,0,WeatherCatV1.12B45,2013-01-18 02:50:00,
2013-01-17 18:55:00,52.9,30.4,30.09,ESE,116,0.0,0.0,42,0.00,,,0.00,0,WeatherCatV1.12B45,2013-01-18 02:55:00,
2013-01-17 19:00:00,52.9,30.4,30.09,ESE,112,0.0,0.0,42,0.00,,,0.00,0,WeatherCatV1.12B45,2013-01-18 03:00:00,
2013-01-17 19:05:00,52.9,30.4,30.09,ESE,109,0.0,0.0,42,0.00,,,0.00,0,WeatherCatV1.12B45,2013-01-18 03:05:00,
2013-01-17 19:10:00,52.6,30.2,30.09,ESE,119,0.0,0.0,42,0.00,,,0.00,0,WeatherCatV1.12B45,2013-01-18 03:10:00,
2013-01-17 19:15:00,52.5,31.8,30.09,ESE,116,0.0,0.0,45,0.00,,,0.00,0,WeatherCatV1.12B45,2013-01-18 03:15:00,
2013-01-17 19:20:00,52.5,31.8,30.09,SSE,154,0.0,0.0,45,0.00,,,0.00,0,WeatherCatV1.12B45,2013-01-18 03:20:00,
2013-01-17 19:25:00,52.5,31.8,30.09,SSE,154,0.0,0.0,45,0.00,,,0.00,0,WeatherCatV1.12B45,2013-01-18 03:25:00,
2013-01-17 19:30:00,50.4,29.9,30.09,East,79,0.0,0.0,45,0.00,,,0.00,0,WeatherCatV1.12B45,2013-01-18 03:30:00,
2013-01-17 19:35:00,50.1,33.6,30.09,East,89,0.0,0.0,53,0.00,,,0.00,0,WeatherCatV1.12B45,2013-01-18 03:35:00,
2013-01-17 19:40:00,49.4,33.0,30.09,ENE,75,0.0,0.0,53,0.00,,,0.00,0,WeatherCatV1.12B45,2013-01-18 03:40:00,
2013-01-17 19:45:00,48.8,33.4,30.09,ENE,72,0.0,0.0,55,0.00,,,0.00,0,WeatherCatV1.12B45,2013-01-18 03:45:00,
2013-01-17 19:50:00,48.3,33.3,30.09,East,89,0.0,0.0,56,0.00,,,0.00,0,WeatherCatV1.12B45,2013-01-18 03:50:00,
2013-01-17 19:55:00,48.0,33.1,30.09,ESE,123,0.0,0.0,56,0.00,,,0.00,0,WeatherCatV1.12B45,2013-01-18 03:55:00,
2013-01-17 20:00:00,47.6,32.7,30.09,ESE,116,0.0,0.0,56,0.00,,,0.00,0,WeatherCatV1.12B45,2013-01-18 04:00:00,
2013-01-17 20:05:00,47.3,32.4,30.09,ESE,119,0.0,0.0,56,0.00,,,0.00,0,WeatherCatV1.12B45,2013-01-18 04:05:00,
2013-01-17 20:10:00,47.0,32.1,30.09,ESE,110,0.0,0.0,56,0.00,,,0.00,0,WeatherCatV1.12B45,2013-01-18 04:10:00,
2013-01-17 20:15:00,46.5,31.7,30.09,ESE,106,0.0,0.0,56,0.00,,,0.00,0,WeatherCatV1.12B45,2013-01-18 04:15:00,
2013-01-17 20:20:00,46.1,33.4,30.09,ESE,117,0.0,0.0,61,0.00,,,0.00,0,WeatherCatV1.12B45,2013-01-18 04:20:00,
2013-01-17 20:25:00,45.7,33.0,30.09,ESE,103,0.0,0.0,61,0.00,,,0.00,0,WeatherCatV1.12B45,2013-01-18 04:25:00,
2013-01-17 20:30:00,45.5,32.8,30.09,ESE,119,0.0,0.0,61,0.00,,,0.00,0,WeatherCatV1.12B45,2013-01-18 04:30:00,
2013-01-17 20:35:00,45.2,32.6,30.09,ESE,113,0.0,0.0,61,0.00,,,0.00,0,WeatherCatV1.12B45,2013-01-18 04:35:00,
2013-01-17 20:40:00,44.9,33.1,30.09,ESE,110,0.0,0.0,63,0.00,,,0.00,0,WeatherCatV1.12B45,2013-01-18 04:40:00,
2013-01-17 20:45:00,44.6,33.2,30.09,ESE,103,0.0,0.0,64,0.00,,,0.00,0,WeatherCatV1.12B45,2013-01-18 04:45:00,
2013-01-17 20:50:00,44.5,33.5,30.09,SE,127,0.0,0.0,65,0.00,,,0.00,0,WeatherCatV1.12B45,2013-01-18 04:50:00,
2013-01-17 20:55:00,43.8,33.2,30.09,NE,40,0.0,0.0,66,0.00,,,0.00,0,WeatherCatV1.12B45,2013-01-18 04:55:00,
2013-01-17 21:05:00,43.1,32.9,30.09,NE,34,0.0,0.0,67,0.00,,,0.00,0,WeatherCatV1.12B45,2013-01-18 05:05:00,
2013-01-17 21:10:00,42.6,32.8,30.09,NE,34,0.0,0.0,68,0.00,,,0.00,0,WeatherCatV1.12B45,2013-01-18 05:10:00,
2013-01-17 21:15:00,42.3,32.5,30.09,NE,34,0.0,0.0,68,0.00,,,0.00,0,WeatherCatV1.12B45,2013-01-18 05:15:00,
2013-01-17 21:20:00,42.1,33.0,30.09,NNE,31,0.0,0.0,70,0.00,,,0.00,0,WeatherCatV1.12B45,2013-01-18 05:20:00,
2013-01-17 21:25:00,41.6,32.6,30.09,NNE,31,0.0,0.0,70,0.00,,,0.00,0,WeatherCatV1.12B45,2013-01-18 05:25:00,
2013-01-17 21:30:00,41.3,32.6,30.09,NNE,31,0.0,0.0,71,0.00,,,0.00,0,WeatherCatV1.12B45,2013-01-18 05:30:00,
2013-01-17 21:35:00,41.2,32.5,30.09,NNE,31,0.0,0.0,71,0.00,,,0.00,0,WeatherCatV1.12B45,2013-01-18 05:35:00,
2013-01-17 21:40:00,40.9,32.6,30.09,NNE,31,0.0,0.0,72,0.00,,,0.00,0,WeatherCatV1.12B45,2013-01-18 05:40:00,
2013-01-17 21:45:00,40.6,32.3,30.10,NNE,31,0.0,0.0,72,0.00,,,0.00,0,WeatherCatV1.12B45,2013-01-18 05:45:00,
2013-01-17 21:50:00,40.3,32.3,30.10,NNE,31,0.0,0.0,73,0.00,,,0.00,0,WeatherCatV1.12B45,2013-01-18 05:50:00,
2013-01-17 21:55:00,40.2,32.6,30.10,NNE,31,0.0,0.0,74,0.00,,,0.00,0,WeatherCatV1.12B45,2013-01-18 05:55:00,
2013-01-17 22:00:00,39.9,32.3,30.10,NNE,31,0.0,0.0,74,0.00,,,0.00,0,WeatherCatV1.12B45,2013-01-18 06:00:00,
2013-01-17 22:05:00,39.8,32.5,30.10,NNE,31,0.0,0.0,75,0.00,,,0.00,0,WeatherCatV1.12B45,2013-01-18 06:05:00,
2013-01-17 22:10:00,39.6,32.3,30.10,NNE,31,0.0,0.0,75,0.00,,,0.00,0,WeatherCatV1.12B45,2013-01-18 06:10:00,
2013-01-17 22:15:00,39.3,32.4,30.09,NE,34,0.0,0.0,76,0.00,,,0.00,0,WeatherCatV1.12B45,2013-01-18 06:15:00,
2013-01-17 22:20:00,39.3,32.4,30.09,NE,34,0.0,0.0,76,0.00,,,0.00,0,WeatherCatV1.12B45,2013-01-18 06:20:00,
2013-01-17 22:25:00,39.5,32.6,30.09,NE,34,0.0,0.0,76,0.00,,,0.00,0,WeatherCatV1.12B45,2013-01-18 06:25:00,
2013-01-17 22:30:00,39.8,32.5,30.09,NE,34,0.0,0.0,75,0.00,,,0.00,0,WeatherCatV1.12B45,2013-01-18 06:30:00,
2013-01-17 22:35:00,40.3,33.0,30.09,NE,34,0.0,0.0,75,0.00,,,0.00,0,WeatherCatV1.12B45,2013-01-18 06:35:00,
2013-01-17 22:40:00,41.1,32.1,30.09,NE,34,0.0,1.0,70,0.00,,,0.00,0,WeatherCatV1.12B45,2013-01-18 06:40:00,
2013-01-17 22:45:00,41.9,32.8,30.09,SE,133,0.0,2.0,70,0.00,,,0.00,0,WeatherCatV1.12B45,2013-01-18 06:45:00,
2013-01-17 22:50:00,42.9,31.6,30.09,ESE,112,0.0,0.0,64,0.00,,,0.00,0,WeatherCatV1.12B45,2013-01-18 06:50:00,
2013-01-17 22:55:00,43.3,32.0,30.09,ESE,113,0.0,1.0,64,0.00,,,0.00,0,WeatherCatV1.12B45,2013-01-18 06:55:00,
2013-01-17 23:00:00,43.5,31.8,30.10,ESE,112,0.0,0.0,63,0.00,,,0.00,0,WeatherCatV1.12B45,2013-01-18 07:00:00,
2013-01-17 23:05:00,43.5,31.8,30.10,ESE,112,0.0,0.0,63,0.00,,,0.00,0,WeatherCatV1.12B45,2013-01-18 07:05:00,
2013-01-17 23:10:00,43.3,32.0,30.10,ESE,119,0.0,0.0,64,0.00,,,0.00,0,WeatherCatV1.12B45,2013-01-18 07:10:00,
2013-01-17 23:15:00,43.2,31.9,30.10,ESE,123,0.0,0.0,64,0.00,,,0.00,0,WeatherCatV1.12B45,2013-01-18 07:15:00,
2013-01-17 23:20:00,43.1,31.8,30.10,ESE,119,0.0,0.0,64,0.00,,,0.00,0,WeatherCatV1.12B45,2013-01-18 07:20:00,
2013-01-17 23:25:00,43.2,31.9,30.10,ESE,123,0.0,1.0,64,0.00,,,0.00,0,WeatherCatV1.12B45,2013-01-18 07:25:00,
2013-01-17 23:30:00,43.6,32.2,30.10,ESE,116,0.0,1.0,64,0.00,,,0.00,0,WeatherCatV1.12B45,2013-01-18 07:30:00,
2013-01-17 23:35:00,44.1,32.7,30.10,ESE,110,0.0,0.0,64,0.00,,,0.00,0,WeatherCatV1.12B45,2013-01-18 07:35:00,
2013-01-17 23:40:00,44.1,31.9,30.10,ESE,109,0.0,1.0,62,0.00,,,0.00,0,WeatherCatV1.12B45,2013-01-18 07:40:00,
2013-01-17 23:45:00,44.1,31.9,30.10,ESE,109,1.0,1.0,62,0.00,,,0.00,0,WeatherCatV1.12B45,2013-01-18 07:45:00,
2013-01-17 23:50:00,44.3,32.1,30.10,ESE,110,0.0,0.0,62,0.00,,,0.00,0,WeatherCatV1.12B45,2013-01-18 07:50:00,
2013-01-17 23:55:00,44.3,32.1,30.10,ESE,110,0.0,0.0,62,0.00,,,0.00,0,WeatherCatV1.12B45,2013-01-18 07:55:00,